Regional Weather Roundup
Issued by NWS

Home | Current Version | Previous Version | Text Only | Print | Product List | Glossary Off
Versions: 1 2 3 4 5 6 7 8 9 10 11 12 13 14 15 16 17 18 19 20 21 22 23 24 25 26 27 28 29 30 31 32 33 34 35 36 37 38 39 40 41 42 43 44 45 46 47 48 49 50

000
ASUS43 KBIS 280601
RWRND

NORTH DAKOTA REGIONAL WEATHER ROUNDUP
NATIONAL WEATHER SERVICE BISMARCK ND
100 AM CDT TUE APR 28 2015

NOTE: "FAIR" INDICATES FEW OR NO CLOUDS BELOW 12,000 FEET WITH NO
SIGNIFICANT WEATHER AND/OR OBSTRUCTIONS TO VISIBILITY.


NDZ001>003-009>011-017-280700-
NORTHWEST NORTH DAKOTA

CITY           SKY/WX    TMP DP  RH WIND       PRES   REMARKS
WILLISTON      CLEAR     42  36  79 S5        30.30S
6HR MIN TEMP:  40; 6HR MAX TEMP:  58;

MINOT          CLEAR     42  37  82 SW12      30.28R
MINOT AFB      CLEAR     40  40 100 W10       30.27R
$$

NDZ018>021-031>035-040>046-280700-
SOUTHWEST NORTH DAKOTA

CITY           SKY/WX    TMP DP  RH WIND       PRES   REMARKS
BISMARCK       CLEAR     41  38  89 NW5       30.31S
6HR MIN TEMP:  40; 6HR MAX TEMP:  50;

DICKINSON      PTCLDY    34  31  88 W8        30.31R
GARRISON         N/A     37  34  89 W3        30.30R
6HR MIN TEMP:  36; 6HR MAX TEMP:  51;

HETTINGER ARPT CLEAR     32  30  92 CALM      30.34R
$$

NDZ004>008-012>016-024-026-027-054-280700-
NORTHEAST NORTH DAKOTA

CITY           SKY/WX    TMP DP  RH WIND       PRES   REMARKS
GRAND FORKS    CLOUDY    45  43  93 N3        30.26S
GRND FRKS AFB  MOCLDY    44  42  96 N6        30.26S FOG
DEVILS LAKE      N/A     37  36  93 W5        30.27S VSB 1/2
$$

NDZ022-023-025-028>030-036>039-047>053-280700-
SOUTHEAST NORTH DAKOTA

CITY           SKY/WX    TMP DP  RH WIND       PRES   REMARKS
FARGO          LGT RAIN  49  43  80 N12       30.24R
6HR MIN TEMP:  49; 6HR MAX TEMP:  71; 6HR PCP: TRACE;

JAMESTOWN      MOCLDY    44  42  93 NW8       30.26S
$$



USA.gov is the U.S. government's official web portal to all federal, state and local government web resources and services.